Forside
METAR-TAF:

METAR-TAF

Lufthavne :

Aitkin Municipal Airport (Steve Kurtz Field)

Aitkin, Minnesota, USA

Breddekreds: 46-33N, længdekreds: 093-41W, højde: 367 m

Aktuelle vejr

Denne rapport blev lavet for 12 minutter siden, kl. 23:55 UTC
Vind stille
Temperatur 23°C
Fugtighed 44%
Tryk 1022 hPa
Sigt: 16.1 km
Spredte skyer i en højde af 7000 ft
Spredte skyer i en højde af 9000 ft

METAR: KAIT 012355Z AUTO 00000KT 10SM SCT070 SCT090 23/10 A3017 RMK AO2

Tid: 19:07 (00:07 UTC)


TAF: fraværende

Vejrobservationer og prognoser fra mere end 4000 lufthavne (METAR og TAF).

De gule og røde prikker repræsenterer de meteorologiske stationer.

Flyt musen over at se navnet på stationen.

Så klik over at se vejr observationer og prognoser.

At skifte det kort: Klik på de grønne knapper med et sort kors for at zoome ind; på den grønne knap med en bindestreg for at zoome ud; eller på de grønne pile for tilstødende kort.


METAR-TAF: